Lid_Strength_Index
8 11 14 14 11 13 14 14 15 13 11 11 12 12 9 9 10 9 9 9 9 9 7 7 6 5 5 4 1 1 1 1 1 2 2 1 2 1 1 1 0 1 0 0
11 13 12 11 10 11 13 14 15 13 11 11 13 13 11 10 11 9 9 10 9 9 8 7 7 6 6 5 3 1 1 1 1 1 1 1 1 1 0 0 0 0 0 0
12 12 9 11 11 12 12 14 14 15 12 12 13 15 14 12 11 11 10 9 9 9 8 7 7 6 6 6 5 3 1 1 1 1 1 1 2 3 2 1 1 1 0 0
12 10 11 12 13 12 16 12 12 12 13 17 14 19 17 16 15 12 11 10 10 9 8 8 7 6 6 6 6 5 4 2 1 0 1 2 2 3 2 1 1 1 1 1
14 13 14 14 14 11 14 11 11 12 14 14 15 17 18 15 15 14 12 11 10 9 8 7 7 7 7 7 7 6 6 4 2 1 1 1 2 1 1 1 2 1 1 1
11 10 10 12 11 10 10 12 12 12 14 18 17 16 18 17 17 13 11 10 10 9 8 8 8 8 8 7 6 6 6 5 4 1 1 1 2 2 2 2 2 2 2 2
12 11 10 10 13 11 12 15 19 19 20 21 17 17 17 16 14 13 12 10 10 9 9 9 9 8 8 8 8 6 6 6 4 2 2 2 2 2 2 2 2 2 2 2
16 17 12 11 12 13 12 13 19 24 22 20 17 19 17 14 12 12 11 11 10 10 9 9 8 9 9 9 9 8 8 8 8 7 4 2 3 3 2 2 2 2 2 2
16 16 11 10 9 9 13 15 12 17 21 21 18 17 14 13 14 12 12 11 11 11 10 10 10 10 10 10 10 10 9 9 9 9 8 8 7 4 3 2 2 2 1 1
13 17 12 10 9 9 11 10 16 15 21 22 19 18 17 15 14 13 13 12 12 12 12 11 11 11 11 10 10 10 10 10 10 9 9 8 8 7 7 5 4 2 0 0
10 13 14 11 13 13 13 14 14 14 15 19 21 18 15 13 12 12 11 11 12 12 11 11 11 11 11 11 11 10 10 10 10 10 9 9 8 8 7 7 7 7 5 4
10 13 16 14 11 9 10 12 13 17 18 16 17 15 13 12 12 11 10 11 12 11 11 11 10 10 10 10 10 10 10 10 10 9 9 9 9 9 9 8 8 7 7 6
10 14 18 17 13 11 13 12 12 12 13 16 18 17 12 11 11 11 11 11 10 10 10 10 10 10 10 10 10 10 10 10 10 10 9 9 9 9 9 9 9 9 9 8
10 12 15 18 15 13 15 14 12 13 17 16 16 14 12 12 11 11 10 9 9 9 9 9 9 10 10 10 10 11 11 10 10 10 10 11 11 11 10 10 10 10 9 9
10 15 13 12 12 13 13 13 13 14 13 16 14 14 11 9 10 10 9 9 9 9 9 10 10 11 11 12 12 12 12 12 12 12 12 12 12 12 12 12 11 10 10 10
9 14 13 15 12 12 14 13 13 13 13 13 12 13 9 7 9 9 10 9 9 10 10 11 11 11 13 13 14 13 13 13 13 13 14 13 14 13 12 12 12 11 10 10
12 13 15 17 13 13 16 13 13 12 11 12 15 11 8 10 10 9 9 9 9 10 11 12 13 13 15 15 15 15 15 14 14 15 15 15 14 15 13 12 12 11 11 10
12 13 14 16 15 21 13 11 10 11 11 10 10 9 8 8 10 12 12 9 9 12 14 15 15 15 16 17 17 16 16 16 16 16 16 16 15 16 14 13 12 12 11 11
10 13 16 17 17 16 13 12 12 12 12 9 9 9 8 12 11 13 15 14 14 16 16 17 17 17 17 18 18 17 17 17 18 18 18 17 17 17 16 14 13 12 12 12
9 10 14 16 18 20 15 15 16 15 15 17 16 15 12 11 12 11 17 17 18 18 19 18 18 18 18 19 19 18 18 19 20 19 19 18 17 17 17 15 13 13 12 12
14 14 16 16 17 17 19 18 15 16 17 19 18 17 16 12 16 18 18 19 19 19 19 19 19 19 19 20 20 20 19 21 20 20 19 19 18 18 17 15 14 13 13 12
15 16 17 15 17 19 21 17 16 19 20 19 19 18 18 18 18 19 20 20 21 21 21 21 21 20 21 21 21 22 22 22 21 21 21 20 19 18 17 17 16 14 14 13
16 20 20 21 22 21 21 21 20 20 21 21 21 19 19 21 21 21 22 22 22 23 23 22 23 22 22 23 23 24 24 23 23 23 23 21 20 19 19 19 18 17 14 14
19 22 20 21 23 23 23 22 22 22 22 22 22 21 22 23 22 23 23 24 24 24 25 25 24 25 25 25 25 25 24 24 24 24 23 22 21 21 20 19 18 18 16 15
25 23 23 23 24 24 25 24 23 23 23 23 23 24 24 24 25 24 25 25 26 26 26 26 26 26 26 26 26 26 25 25 25 24 24 23 23 23 22 21 20 18 18 17
25 27 25 26 25 25 26 25 24 25 25 24 25 25 25 25 26 25 26 26 26 27 27 27 27 28 27 27 27 27 26 26 26 26 25 25 24 24 23 22 22 19 18 16